Weather History for KBPC - March, 2014

Change the Weather History Date:

Sunday, March 16, 2014

  Actual Average Record
Temperature  
Mean Temperature 40 °F -  
Max Temperature 50 °F - - ()
Min Temperature 30 °F - - ()
Degree Days  
Heating Degree Days 25    
Moisture  
Dew Point 25 °F    
Average Humidity 56    
Maximum Humidity 80    
Minimum Humidity 32    
Precipitation  
Precipitation 0.00 in - - ()
Sea Level Pressure  
Sea Level Pressure 30.18 in    
Wind  
Wind Speed 19 mph (North)    
Max Wind Speed 28 mph    
Max Gust Speed 43 mph    
Visibility 10 miles    
Events      
Averages and records for this station are not official NWS values.
T = Trace of Precipitation, MM = Missing Value Source: NWS Daily Summary

Daily Weather History Graph

Daily Weather History Graph

Search for Another Location

Airport or City:

Trip Planner

Search our weather history database for the weather conditions in past years. The results will help you decide how hot, cold, wet, or windy it might be!

Date:

Astronomy

Mar. 16, 2014 Rise Set
Actual Time 7:53 AM CDT 7:52 PM CDT
Civil Twilight 7:27 AM CDT 8:18 PM CDT
Nautical Twilight 6:58 AM CDT 8:47 PM CDT
Astronomical Twilight 6:28 AM CDT 9:17 PM CDT
Moon 8:10 PM CDT (3/16) 7:38 AM CDT (3/16)
Length of Visible Light 12h 50m
Length of Day
11h 59m
Full, 100% of the Moon is Illuminated
Mar 16
Full
Mar 16
Full
Mar 23
Last Quarter
Mar 30
New
Apr 7
First Quarter

Hourly Weather History & Observations

Time (CDT) Temp. Windchill Dew Point Humidity Pressure Visibility Wind Dir Wind Speed Gust Speed Precip Events Conditions
12:15 AM 46.4 °F 37.5 °F 32.0 °F 57% 30.06 in 10.0 mi North 27.6 mph 42.6 mph N/A   Clear
12:35 AM 44.6 °F 35.9 °F 32.0 °F 61% 30.08 in 10.0 mi North 23.0 mph 40.3 mph N/A   Clear
12:55 AM 44.6 °F 35.9 °F 32.0 °F 61% 30.09 in 10.0 mi North 23.0 mph 34.5 mph N/A   Clear
1:15 AM 42.8 °F 33.5 °F 32.0 °F 66% 30.09 in 10.0 mi North 23.0 mph 29.9 mph N/A   Clear
1:35 AM 42.8 °F 33.3 °F 32.0 °F 66% 30.10 in 10.0 mi North 24.2 mph 32.2 mph N/A   Clear
1:55 AM 42.8 °F 33.8 °F 32.0 °F 66% 30.12 in 10.0 mi North 21.9 mph 28.8 mph N/A   Scattered Clouds
2:15 AM 42.8 °F 34.3 °F 32.0 °F 66% 30.13 in 10.0 mi North 19.6 mph 32.2 mph N/A   Mostly Cloudy
2:35 AM 42.8 °F 33.3 °F 32.0 °F 66% 30.13 in 10.0 mi North 24.2 mph 39.1 mph N/A   Overcast
2:55 AM 42.8 °F 33.3 °F 32.0 °F 66% 30.14 in 10.0 mi North 24.2 mph 33.4 mph N/A   Mostly Cloudy
3:15 AM 39.2 °F 28.7 °F 28.4 °F 65% 30.14 in 10.0 mi North 23.0 mph 31.1 mph N/A   Scattered Clouds
3:35 AM 37.4 °F 26.1 °F 28.4 °F 70% 30.14 in 10.0 mi North 24.2 mph 35.7 mph N/A   Clear
3:55 AM 37.4 °F 26.1 °F 26.6 °F 65% 30.14 in 10.0 mi North 24.2 mph 32.2 mph N/A   Clear
4:15 AM 37.4 °F 27.2 °F 24.8 °F 60% 30.14 in 10.0 mi North 19.6 mph 34.5 mph N/A   Clear
4:35 AM 35.6 °F 25.5 °F 24.8 °F 65% 30.16 in 10.0 mi North 17.3 mph 28.8 mph N/A   Clear
4:55 AM 35.6 °F 25.9 °F 24.8 °F 65% 30.17 in 10.0 mi North 16.1 mph 28.8 mph N/A   Clear
5:15 AM 35.6 °F 24.2 °F 24.8 °F 65% 30.17 in 10.0 mi North 21.9 mph 32.2 mph N/A   Clear
5:35 AM 33.8 °F 22.5 °F 24.8 °F 70% 30.17 in 10.0 mi North 19.6 mph 26.5 mph N/A   Clear
5:55 AM 33.8 °F 23.2 °F 24.8 °F 70% 30.18 in 10.0 mi North 17.3 mph 28.8 mph N/A   Clear
6:15 AM 33.8 °F 23.5 °F 24.8 °F 70% 30.19 in 10.0 mi North 16.1 mph 23.0 mph N/A   Clear
6:35 AM 33.8 °F 24.3 °F 24.8 °F 70% 30.20 in 10.0 mi North 13.8 mph 19.6 mph N/A   Clear
6:55 AM 32.0 °F 21.2 °F 26.6 °F 80% 30.20 in 10.0 mi North 16.1 mph 23.0 mph N/A   Clear
7:15 AM 32.0 °F 21.2 °F 26.6 °F 80% 30.21 in 10.0 mi North 16.1 mph 24.2 mph N/A   Clear
7:35 AM 32.0 °F 23.0 °F 26.6 °F 80% 30.22 in 10.0 mi North 11.5 mph 21.9 mph N/A   Clear
7:55 AM 32.0 °F 20.8 °F 26.6 °F 80% 30.23 in 10.0 mi North 17.3 mph 20.7 mph N/A   Scattered Clouds
8:15 AM 32.0 °F 23.0 °F 26.6 °F 80% 30.23 in 10.0 mi North 11.5 mph 21.9 mph N/A   Clear
8:35 AM 32.0 °F 22.1 °F 26.6 °F 80% 30.24 in 10.0 mi North 13.8 mph 23.0 mph N/A   Clear
8:55 AM 32.0 °F 20.5 °F 26.6 °F 80% 30.24 in 10.0 mi North 18.4 mph 26.5 mph N/A   Clear
9:15 AM 33.8 °F 24.3 °F 26.6 °F 75% 30.25 in 10.0 mi North 13.8 mph 25.3 mph N/A   Clear
9:35 AM 35.6 °F 24.2 °F 26.6 °F 70% 30.27 in 10.0 mi North 21.9 mph 28.8 mph N/A   Clear
9:55 AM 35.6 °F 24.5 °F 26.6 °F 70% 30.27 in 10.0 mi North 20.7 mph 28.8 mph N/A   Clear
10:15 AM 37.4 °F 26.9 °F 26.6 °F 65% 30.28 in 10.0 mi North 20.7 mph 26.5 mph N/A   Scattered Clouds
10:35 AM 37.4 °F 27.5 °F 26.6 °F 65% 30.29 in 10.0 mi North 18.4 mph 31.1 mph N/A   Mostly Cloudy
10:55 AM 39.2 °F 28.7 °F 26.6 °F 61% 30.29 in 10.0 mi North 23.0 mph 29.9 mph N/A   Scattered Clouds
11:15 AM 39.2 °F 29.0 °F 26.6 °F 61% 30.30 in 10.0 mi North 21.9 mph 28.8 mph N/A   Mostly Cloudy
11:35 AM 41.0 °F 31.6 °F 26.6 °F 57% 30.30 in 10.0 mi North 20.7 mph 27.6 mph N/A   Overcast
11:55 AM 41.0 °F 32.2 °F 26.6 °F 57% 30.29 in 10.0 mi North 18.4 mph 29.9 mph N/A   Overcast
12:15 PM 41.0 °F 32.5 °F 26.6 °F 57% 30.29 in 10.0 mi North 17.3 mph 28.8 mph N/A   Overcast
12:35 PM 41.0 °F 31.6 °F 24.8 °F 53% 30.28 in 10.0 mi NNE 20.7 mph 32.2 mph N/A   Mostly Cloudy
12:55 PM 41.0 °F 31.1 °F 24.8 °F 53% 30.27 in 10.0 mi North 23.0 mph 29.9 mph N/A   Overcast
1:15 PM 42.8 °F 34.3 °F 24.8 °F 49% 30.26 in 10.0 mi North 19.6 mph 28.8 mph N/A   Mostly Cloudy
1:35 PM 42.8 °F 33.3 °F 26.6 °F 53% 30.25 in 10.0 mi North 24.2 mph 29.9 mph N/A   Scattered Clouds
1:55 PM 44.6 °F 37.8 °F 26.6 °F 49% 30.25 in 10.0 mi NNE 15.0 mph 25.3 mph N/A   Scattered Clouds
2:15 PM 44.6 °F 36.6 °F 24.8 °F 46% 30.23 in 10.0 mi North 19.6 mph 26.5 mph N/A   Scattered Clouds
2:35 PM 46.4 °F 39.5 °F 23.0 °F 40% 30.22 in 10.0 mi NNE 17.3 mph 26.5 mph N/A   Scattered Clouds
2:55 PM 44.6 °F 38.1 °F 23.0 °F 43% 30.20 in 10.0 mi NNE 13.8 mph 27.6 mph N/A   Scattered Clouds
3:15 PM 44.6 °F 37.8 °F 23.0 °F 43% 30.19 in 10.0 mi NNE 15.0 mph 21.9 mph N/A   Mostly Cloudy
3:35 PM 46.4 °F 40.4 °F 23.0 °F 40% 30.19 in 10.0 mi North 13.8 mph 26.5 mph N/A   Scattered Clouds
3:55 PM 48.2 °F - 23.0 °F 37% 30.18 in 10.0 mi NNE 17.3 mph 28.8 mph N/A   Scattered Clouds
4:15 PM 48.2 °F - 23.0 °F 37% 30.17 in 10.0 mi North 16.1 mph 23.0 mph N/A   Scattered Clouds
4:35 PM 50.0 °F - 23.0 °F 35% 30.16 in 10.0 mi North 19.6 mph 25.3 mph N/A   Scattered Clouds
4:55 PM 50.0 °F - 21.2 °F 32% 30.16 in 10.0 mi North 17.3 mph 25.3 mph N/A   Clear
5:15 PM 50.0 °F - 21.2 °F 32% 30.16 in 10.0 mi North 16.1 mph 25.3 mph N/A   Clear
5:35 PM 50.0 °F - 21.2 °F 32% 30.15 in 10.0 mi North 16.1 mph 23.0 mph N/A   Clear
5:55 PM 50.0 °F - 21.2 °F 32% 30.15 in 10.0 mi North 15.0 mph 25.3 mph N/A   Clear
6:15 PM 50.0 °F - 21.2 °F 32% 30.14 in 10.0 mi North 10.4 mph 19.6 mph N/A   Clear
6:35 PM 50.0 °F - 21.2 °F 32% 30.14 in 10.0 mi North 12.7 mph 19.6 mph N/A   Clear
6:55 PM 48.2 °F - 19.4 °F 32% 30.14 in 10.0 mi North 17.3 mph 21.9 mph N/A   Clear
7:15 PM 46.4 °F 42.9 °F 21.2 °F 37% 30.14 in 10.0 mi North 6.9 mph 10.4 mph N/A   Clear
7:35 PM 46.4 °F 42.9 °F 21.2 °F 37% 30.13 in 10.0 mi NNE 6.9 mph 10.4 mph N/A   Clear
7:55 PM 44.6 °F 40.7 °F 19.4 °F 37% 30.13 in 10.0 mi North 6.9 mph - N/A   Clear
8:15 PM 41.0 °F 39.0 °F 19.4 °F 42% 30.14 in 10.0 mi NNE 3.5 mph - N/A   Clear
8:35 PM 42.8 °F - 19.4 °F 39% 30.12 in 10.0 mi Calm Calm - N/A   Clear
8:55 PM 41.0 °F - 21.2 °F 45% 30.14 in 10.0 mi Calm Calm - N/A   Clear
9:15 PM 39.2 °F - 19.4 °F 45% 30.14 in 10.0 mi Calm Calm - N/A   Clear
9:35 PM 37.4 °F - 19.4 °F 48% 30.13 in 10.0 mi Calm Calm - N/A   Clear
9:55 PM 33.8 °F - 19.4 °F 56% 30.13 in 10.0 mi Calm Calm - N/A   Clear
10:15 PM 32.0 °F - 17.6 °F 55% 30.14 in 10.0 mi Calm Calm - N/A   Clear
10:35 PM 32.0 °F 28.7 °F 17.6 °F 55% 30.12 in 10.0 mi SSW 3.5 mph - N/A   Clear
10:55 PM 30.2 °F 26.7 °F 19.4 °F 64% 30.11 in 10.0 mi South 3.5 mph - N/A   Clear
11:15 PM 30.2 °F 24.3 °F 19.4 °F 64% 30.11 in 10.0 mi South 5.8 mph - N/A   Clear
11:35 PM 32.0 °F 25.6 °F 19.4 °F 60% 30.11 in 10.0 mi SSW 6.9 mph - N/A   Clear
11:55 PM 30.2 °F 25.4 °F 19.4 °F 64% 30.11 in 10.0 mi West 4.6 mph - N/A   Clear